Weather History for EGFF - February, 2013

Change the Weather History Date:

Tuesday, February 12, 2013

  Actual Average Record
Temperature  
Mean Temperature 35 °F -  
Max Temperature 37 °F 46 °F 55 °F (1998)
Min Temperature 33 °F 36 °F 30 °F (1999)
Degree Days  
Heating Degree Days 30    
Moisture  
Dew Point 30 °F    
Average Humidity 80    
Maximum Humidity 87    
Minimum Humidity 75    
Precipitation  
Precipitation 0.00 in 0.09 in - ()
Sea Level Pressure  
Sea Level Pressure 29.98 in    
Wind  
Wind Speed 7 mph ()    
Max Wind Speed 12 mph    
Max Gust Speed -    
Visibility 4.9 miles    
Events      
Averages and records for this station are not official NWS values.
T = Trace of Precipitation, MM = Missing Value Source: Averaged Metar Reports

Daily Weather History Graph

Daily Weather History Graph

Search for Another Location

Airport or City:

Trip Planner

Search our weather history database for the weather conditions in past years. The results will help you decide how hot, cold, wet, or windy it might be!

Date:

Astronomy

Feb. 12, 2013 Rise Set
Actual Time 7:32 AM GMT 5:23 PM GMT
Civil Twilight 6:57 AM GMT 5:58 PM GMT
Nautical Twilight 6:18 AM GMT 6:37 PM GMT
Astronomical Twilight 5:40 AM GMT 7:16 PM GMT
Moon 7:59 AM GMT (2/12) 8:35 PM GMT (2/12)
Length of Visible Light 11h 00m
Length of Day
9h 51m
Waxing Crescent, 6% of the Moon is Illuminated
Feb 12
Waxing Crescent
Feb 17
First Quarter
Feb 25
Full
Mar 4
Last Quarter
Mar 11
New

Hourly Weather History & Observations

Time (GMT) Temp. Windchill Dew Point Humidity Pressure Visibility Wind Dir Wind Speed Gust Speed Precip Events Conditions
12:20 AM 35.6 °F 29.2 °F 32.0 °F 87% 29.80 in 6.2 mi NE 8.1 mph - N/A   Partly Cloudy
12:50 AM 35.6 °F 29.2 °F 32.0 °F 87% 29.83 in 6.2 mi NE 8.1 mph - N/A   Scattered Clouds
1:20 AM 35.6 °F 30.7 °F 32.0 °F 87% 29.83 in 6.2 mi NE 5.8 mph - N/A   Overcast
1:50 AM 35.6 °F 30.7 °F 32.0 °F 87% 29.83 in 5.6 mi NE 5.8 mph - N/A   Overcast
2:20 AM 35.6 °F 29.9 °F 32.0 °F 87% 29.86 in 5.6 mi NE 6.9 mph - N/A   Overcast
2:50 AM 35.6 °F 29.2 °F 32.0 °F 87% 29.86 in 5.6 mi NE 8.1 mph - N/A   Overcast
3:20 AM 35.6 °F 30.7 °F 32.0 °F 87% 29.86 in 5.0 mi NNE 5.8 mph - N/A   Mostly Cloudy
3:50 AM 35.6 °F 30.7 °F 32.0 °F 87% 29.86 in 5.6 mi NE 5.8 mph - N/A   Mostly Cloudy
4:20 AM 35.6 °F 29.9 °F 32.0 °F 87% 29.89 in 5.6 mi NE 6.9 mph - N/A   Overcast
4:50 AM 35.6 °F 29.2 °F 32.0 °F 87% 29.89 in 5.0 mi NE 8.1 mph - N/A   Mostly Cloudy
5:20 AM 35.6 °F 29.2 °F 32.0 °F 87% 29.89 in 5.0 mi NE 8.1 mph - N/A   Overcast
5:50 AM 35.6 °F 29.2 °F 32.0 °F 87% 29.89 in 5.0 mi NE 8.1 mph - N/A   Mostly Cloudy
6:20 AM 35.6 °F 29.2 °F 30.2 °F 81% 29.89 in 4.3 mi NE 8.1 mph - N/A   Partly Cloudy
6:50 AM 33.8 °F 26.4 °F 30.2 °F 87% 29.92 in 4.3 mi ENE 9.2 mph - N/A   Partly Cloudy
7:20 AM 33.8 °F 25.8 °F 30.2 °F 87% 29.92 in 4.3 mi NE 10.4 mph - N/A   Mostly Cloudy
7:50 AM 33.8 °F 27.0 °F 30.2 °F 87% 29.95 in 3.7 mi NE 8.1 mph - N/A   Mostly Cloudy
8:20 AM 35.6 °F 29.9 °F 30.2 °F 81% 29.95 in 3.7 mi NE 6.9 mph - N/A   Mostly Cloudy
8:50 AM 35.6 °F 29.2 °F 30.2 °F 81% 29.98 in 3.7 mi NE 8.1 mph - N/A   Mostly Cloudy
9:20 AM 35.6 °F 29.9 °F 30.2 °F 81% 29.98 in 3.7 mi NE 6.9 mph - N/A   Mostly Cloudy
9:50 AM 35.6 °F 28.6 °F 32.0 °F 87% 29.98 in 3.7 mi ENE 9.2 mph - N/A   Mostly Cloudy
10:20 AM 35.6 °F 28.6 °F 32.0 °F 87% 29.98 in 4.3 mi ENE 9.2 mph - N/A   Mostly Cloudy
10:50 AM 35.6 °F 28.0 °F 30.2 °F 81% 30.01 in 4.3 mi ENE 10.4 mph - N/A   Mostly Cloudy
11:20 AM 35.6 °F 28.6 °F 30.2 °F 81% 30.01 in 4.3 mi ENE 9.2 mph - N/A   Mostly Cloudy
11:50 AM 37.4 °F 30.3 °F 30.2 °F 75% 30.01 in 4.3 mi ENE 10.4 mph - N/A   Mostly Cloudy
12:20 PM 37.4 °F 29.8 °F 30.2 °F 75% 30.01 in 4.3 mi ENE 11.5 mph - N/A   Mostly Cloudy
12:50 PM 37.4 °F 30.8 °F 32.0 °F 81% 30.01 in 4.3 mi East 9.2 mph - N/A   Mostly Cloudy
1:20 PM 37.4 °F 30.8 °F 30.2 °F 75% 30.01 in 4.3 mi ENE 9.2 mph - N/A   Mostly Cloudy
1:50 PM 37.4 °F 30.8 °F 30.2 °F 75% 30.01 in 5.0 mi ENE 9.2 mph - N/A   Mostly Cloudy
2:20 PM 37.4 °F 30.3 °F 30.2 °F 75% 30.01 in 5.0 mi East 10.4 mph - N/A   Scattered Clouds
2:50 PM 37.4 °F 30.3 °F 30.2 °F 75% 30.01 in 5.0 mi East 10.4 mph - N/A   Mostly Cloudy
3:20 PM 35.6 °F 28.6 °F 28.4 °F 75% 30.01 in 5.6 mi East 9.2 mph - N/A   Mostly Cloudy
3:50 PM 35.6 °F 29.2 °F 28.4 °F 75% 30.04 in 5.0 mi ENE 8.1 mph - N/A   Mostly Cloudy
4:20 PM 35.6 °F 29.2 °F 28.4 °F 75% 30.04 in 5.0 mi ENE 8.1 mph - N/A   Mostly Cloudy
4:50 PM 35.6 °F 29.2 °F 28.4 °F 75% 30.04 in 5.6 mi ENE 8.1 mph - N/A   Overcast
5:20 PM 35.6 °F 30.7 °F 28.4 °F 75% 30.04 in 5.0 mi ENE 5.8 mph - N/A   Mostly Cloudy
5:50 PM 35.6 °F 30.7 °F 28.4 °F 75% 30.04 in 5.0 mi ENE 5.8 mph - N/A   Overcast
6:20 PM 35.6 °F 30.7 °F 28.4 °F 75% 30.06 in 5.0 mi ENE 5.8 mph - N/A   Mostly Cloudy
6:50 PM 35.6 °F 29.9 °F 28.4 °F 75% 30.06 in 5.0 mi ENE 6.9 mph - N/A   Mostly Cloudy
7:20 PM 35.6 °F 30.7 °F 28.4 °F 75% 30.06 in 5.0 mi East 5.8 mph - N/A   Mostly Cloudy
7:50 PM 35.6 °F 29.9 °F 30.2 °F 81% 30.06 in 4.3 mi East 6.9 mph - N/A   Mostly Cloudy
8:20 PM 35.6 °F 28.6 °F 28.4 °F 75% 30.09 in 4.3 mi East 9.2 mph - N/A   Mostly Cloudy
8:50 PM 35.6 °F 29.9 °F 28.4 °F 75% 30.09 in 5.0 mi ESE 6.9 mph - N/A   Mostly Cloudy
9:20 PM 35.6 °F 29.2 °F 28.4 °F 75% 30.09 in 5.0 mi ESE 8.1 mph - N/A   Mostly Cloudy
9:50 PM 35.6 °F 29.2 °F 28.4 °F 75% 30.09 in 6.2 mi ESE 8.1 mph - N/A   Mostly Cloudy
10:20 PM 35.6 °F 29.9 °F 28.4 °F 75% 30.09 in 6.2 mi ESE 6.9 mph - N/A   Mostly Cloudy
10:50 PM 33.8 °F 27.7 °F 28.4 °F 81% 30.09 in 5.0 mi ESE 6.9 mph - N/A   Mostly Cloudy
11:20 PM 33.8 °F 27.7 °F 28.4 °F 81% 30.09 in 4.3 mi ESE 6.9 mph - N/A   Mostly Cloudy
11:50 PM 35.6 °F 29.2 °F 28.4 °F 75% 30.09 in 4.3 mi ESE 8.1 mph - N/A   Partly Cloudy